Weather History for Columbia, MO

Change the Weather History Date:

Wednesday, September 4, 2013

  Actual Average Record
Temperature  
Mean Temperature 73 °F 72 °F  
Max Temperature 88 °F 83 °F 103 °F (1913)
Min Temperature 57 °F 62 °F 38 °F (1891)
Degree Days  
Heating Degree Days 0 0  
Month to date heating degree days 0 0  
Since 1 July heating degree days 0 2  
Cooling Degree Days 8 8  
Month to date cooling degree days 38 33  
Year to date cooling degree days 1105 1116  
Growing Degree Days 22 (Base 50)    
Moisture  
Dew Point 54 °F    
Average Humidity 55    
Maximum Humidity 80    
Minimum Humidity 29    
Precipitation  
Precipitation 0.00 in 0.12 in 2.31 in (2008)
Month to date precipitation T 0.53  
Year to date precipitation 33.09 30.28  
Snow  
Snow 0.00 in 0.00 in 0.00 in (2013)
Month to date snowfall 0.0 0.0  
Since 1 July snowfall 0.0 0.0  
Since 1 September snowfall 0.0 0.0  
Snow Depth 0.00 in    
Sea Level Pressure  
Sea Level Pressure 30.11 in    
Wind  
Wind Speed 3 mph (East)    
Max Wind Speed 9 mph    
Max Gust Speed 12 mph    
Visibility 10 miles    
Events      
T = Trace of Precipitation, MM = Missing Value Source: NWS Daily Summary

Daily Weather History Graph

Daily Weather History Graph

Search for Another Location

Airport:

Trip Planner

Search our weather history database for the weather conditions in past years. The results will help you decide how hot, cold, wet, or windy it might be!

Date:

Astronomy

Sep. 04, 2013 Rise Set
Actual Time 6:40 AM CDT 7:34 PM CDT
Civil Twilight 6:13 AM CDT 8:01 PM CDT
Nautical Twilight 5:41 AM CDT 8:33 PM CDT
Astronomical Twilight 5:08 AM CDT 9:06 PM CDT
Moon 5:53 AM CDT (9/4) 6:54 PM CDT (9/4)
Length of Visible Light 13h 47m
Length of Day
12h 53m
Waning Crescent, 1% of the Moon is Illuminated
Sep 4
Waning Crescent
Sep 5
New
Sep 12
First Quarter
Sep 19
Full
Sep 26
Last Quarter

Hourly Weather History & Observations

Time (CDT) Temp. Heat Index Dew Point Humidity Pressure Visibility Wind Dir Wind Speed Gust Speed Precip Events Conditions
12:54 AM 64.9 °F - 50.0 °F 58% 30.06 in 10.0 mi ESE 5.8 mph - N/A   Clear
1:54 AM 64.9 °F - 51.1 °F 61% 30.07 in 10.0 mi ESE 4.6 mph - N/A   Clear
2:54 AM 64.0 °F - 52.0 °F 65% 30.08 in 10.0 mi ESE 4.6 mph - N/A   Clear
3:54 AM 60.1 °F - 52.0 °F 75% 30.08 in 10.0 mi SE 5.8 mph - N/A   Clear
4:54 AM 59.0 °F - 52.0 °F 78% 30.08 in 10.0 mi East 3.5 mph - N/A   Clear
5:54 AM 59.0 °F - 52.0 °F 78% 30.09 in 10.0 mi East 4.6 mph - N/A   Clear
6:54 AM 59.0 °F - 53.1 °F 81% 30.11 in 10.0 mi East 5.8 mph - N/A   Clear
7:54 AM 63.0 °F - 55.0 °F 75% 30.14 in 10.0 mi SE 3.5 mph - N/A   Clear
8:54 AM 68.0 °F - 57.9 °F 70% 30.15 in 10.0 mi South 3.5 mph - N/A   Clear
9:54 AM 75.0 °F - 59.0 °F 57% 30.16 in 10.0 mi Calm Calm - N/A   Clear
10:54 AM 81.0 °F 80.5 °F 54.0 °F 39% 30.17 in 10.0 mi Variable 3.5 mph - N/A   Clear
11:54 AM 84.9 °F 83.2 °F 53.1 °F 33% 30.16 in 10.0 mi NW 4.6 mph - N/A   Clear
12:54 PM 87.1 °F 84.9 °F 53.1 °F 31% 30.14 in 10.0 mi NNE 3.5 mph - N/A   Clear
1:54 PM 87.1 °F - 51.1 °F 29% 30.12 in 10.0 mi East 4.6 mph - N/A   Clear
2:54 PM 88.0 °F - 52.0 °F 29% 30.11 in 10.0 mi NW 9.2 mph - N/A   Clear
3:54 PM 88.0 °F - 52.0 °F 29% 30.09 in 10.0 mi Calm Calm - N/A   Clear
4:54 PM 87.1 °F 84.9 °F 53.1 °F 31% 30.09 in 10.0 mi SE 3.5 mph - N/A   Clear
5:54 PM 84.0 °F 83.5 °F 57.9 °F 41% 30.09 in 10.0 mi Calm Calm - N/A   Clear
6:54 PM 80.1 °F 80.7 °F 59.0 °F 48% 30.09 in 10.0 mi NNW 3.5 mph - N/A   Clear
7:54 PM 78.1 °F - 57.9 °F 50% 30.09 in 10.0 mi Calm Calm - N/A   Clear
8:54 PM 68.0 °F - 57.9 °F 70% 30.11 in 10.0 mi NE 4.6 mph - N/A   Clear
9:54 PM 75.0 °F - 57.0 °F 53% 30.12 in 10.0 mi West 3.5 mph - N/A   Clear
10:54 PM 69.1 °F - 57.9 °F 68% 30.14 in 10.0 mi Calm Calm - N/A   Clear
11:54 PM 70.0 °F - 57.9 °F 65% 30.14 in 10.0 mi Calm Calm - N/A   Clear